"Pseudo-MPEC" for v08jun6

Created 2026 Jun 17 18:35:11 UT using Find_Orb

Click here for an explanation of pseudo-MPECs

 
 Astrometry: 
     v08jun6*2C2026 06 07.95122 07 47 46.094+06 20 43.59   ~68FZ 20.8 rVNEOCPW84
     v08jun6 2C2026 06 07.95366 07 47 46.688+06 20 39.08   ~68FZ 20.7 rVNEOCPW84
     v08jun6 7C2026 06 11.95503 08 04 04.957+04 16 27.43   ~6C1Z 20.8 rVNEOCP269
     v08jun6 7C2026 06 11.95645 08 04 05.308+04 16 24.91   ~6C1Z 20.8 rVNEOCP269

Station data:
(269) New Horizons KBO Search-Magellan/Baade  (S29.014789 W70.690860)  Chile.
(W84) Cerro Tololo-DECam  (S30.169594 W70.806420)  Chile.  Observer S. S.
   Sheppard. Measurer S. Deen. 4.0-m reflector + CCD.

Orbital elements:  v08jun6
   Perihelion 2026 May 2.529289 +/- 39.8 TT = 12:42:10.5 (JD 2461163.029289)
Epoch 2026 Jun 11.0 TT = JDT 2461202.5   Earth MOID: 0.3988   Me: 0.0382
M 142.277941733 +/- 70              (J2000 ecliptic)             AutoNEOCP
n   3.604646026 +/- 1.87            Peri.   47.345947 +/- 80
a   0.421270421 +/- 0.146           Node   347.515478 +/- 43
e   0.76594896 +/- 0.262            Incl.   31.501633 +/- 34
P   0.273/ 99.869d         H 19.18  G  0.15   U 13.2  SR
q 0.098598779 +/- 0.311    Q 0.743942062 +/- 38.4
From 4 observations 2026 June 7-11; mean residual 0".18
Residuals in arcseconds: 
260607 W84  .26+  .15-    260611 269  .21-  .01+    
260607 W84  .26-  .15+    260611 269  .21+  .01-    

Ephemerides (geocentric):
Date (UTC) HH   RA             Dec           delta  r     elong  mag " sig PA
---- --------  ------------   ------------  ------ ------ -----  --- --------
2026 06 17 19  08 24 34.214   +01 39 25.74  .92348 .74117  44.6 21.0 4733  63
2026 06 17 20  08 24 42.245   +01 38 24.56  .92363 .74123  44.6 21.0 4791  63
2026 06 17 21  08 24 50.266   +01 37 23.47  .92379 .74129  44.6 21.0 4850  63
2026 06 17 22  08 24 58.277   +01 36 22.47  .92394 .74136  44.6 21.0 4908  63
2026 06 17 23  08 25 06.279   +01 35 21.54  .92410 .74142  44.6 21.0 4968  63
2026 06 18 00  08 25 14.271   +01 34 20.70  .92425 .74148  44.6 21.0 5028  63
2026 06 18 01  08 25 22.253   +01 33 19.95  .92441 .74153  44.6 21.0 5088  63
2026 06 18 02  08 25 30.225   +01 32 19.28  .92456 .74159  44.6 21.0 5149  63
2026 06 18 03  08 25 38.188   +01 31 18.69  .92472 .74165  44.6 21.0 5210  63
2026 06 18 04  08 25 46.141   +01 30 18.19  .92487 .74171  44.6 21.0 5271  63
2026 06 18 05  08 25 54.085   +01 29 17.77  .92502 .74176  44.6 21.0 5333  63
2026 06 18 06  08 26 02.019   +01 28 17.44  .92518 .74182  44.6 21.0 5396  63
2026 06 18 07  08 26 09.943   +01 27 17.19  .92533 .74187  44.6 21.0 5458  63
2026 06 18 08  08 26 17.858   +01 26 17.02  .92548 .74193  44.6 21.0 5522  63
2026 06 18 09  08 26 25.763   +01 25 16.94  .92563 .74198  44.6 21.0 5585  63
2026 06 18 10  08 26 33.658   +01 24 16.94  .92579 .74203  44.6 21.0 5650  63
2026 06 18 11  08 26 41.544   +01 23 17.03  .92594 .74208  44.6 21.0 5714  63
2026 06 18 12  08 26 49.420   +01 22 17.19  .92609 .74214  44.6 21.0 5779  63
2026 06 18 13  08 26 57.287   +01 21 17.45  .92624 .74219  44.6 21.0 5845  63
2026 06 18 14  08 27 05.145   +01 20 17.78  .92640 .74224  44.6 21.0 5911  63
2026 06 18 15  08 27 12.992   +01 19 18.20  .92655 .74228  44.6 21.0 5977  63
2026 06 18 16  08 27 20.831   +01 18 18.71  .92670 .74233  44.6 21.0 6044  63
2026 06 18 17  08 27 28.659   +01 17 19.30  .92685 .74238  44.6 21.0 6112  63
2026 06 18 18  08 27 36.479   +01 16 19.97  .92700 .74243  44.6 21.0 6180  63
2026 06 18 19  08 27 44.289   +01 15 20.72  .92715 .74247  44.6 21.0 6248  63
2026 06 18 20  08 27 52.089   +01 14 21.56  .92730 .74252  44.6 21.0 6317  63
2026 06 18 21  08 27 59.880   +01 13 22.48  .92745 .74256  44.6 21.0 6386  63
2026 06 18 22  08 28 07.662   +01 12 23.49  .92760 .74261  44.6 21.0 6456  63
2026 06 18 23  08 28 15.434   +01 11 24.58  .92775 .74265  44.6 21.0 6526  63
2026 06 19 00  08 28 23.197   +01 10 25.75  .92790 .74269  44.6 21.0 6597  63
2026 06 19 01  08 28 30.950   +01 09 27.01  .92805 .74273  44.6 21.0 6668  63
2026 06 19 02  08 28 38.694   +01 08 28.35  .92820 .74278  44.6 21.0 6740  63
2026 06 19 03  08 28 46.429   +01 07 29.77  .92834 .74282  44.6 21.0 6812  63
2026 06 19 04  08 28 54.154   +01 06 31.27  .92849 .74286  44.6 21.0 6885  63
2026 06 19 05  08 29 01.870   +01 05 32.86  .92864 .74289  44.6 21.0 6958  63
2026 06 19 06  08 29 09.577   +01 04 34.54  .92879 .74293  44.6 21.0 7032  63
2026 06 19 07  08 29 17.275   +01 03 36.29  .92894 .74297  44.6 21.0 7106  63
2026 06 19 08  08 29 24.963   +01 02 38.13  .92908 .74301  44.6 21.0 7181  63
2026 06 19 09  08 29 32.642   +01 01 40.06  .92923 .74304  44.6 21.0 7256  63
2026 06 19 10  08 29 40.311   +01 00 42.06  .92938 .74308  44.6 21.0 7332  63
2026 06 19 11  08 29 47.972   +00 59 44.15  .92952 .74311  44.6 21.0 7409  63
2026 06 19 12  08 29 55.623   +00 58 46.32  .92967 .74315  44.6 21.0 7485  63
2026 06 19 13  08 30 03.265   +00 57 48.58  .92981 .74318  44.6 21.0 7563  63
2026 06 19 14  08 30 10.898   +00 56 50.92  .92996 .74321  44.6 21.0 7641  63
2026 06 19 15  08 30 18.521   +00 55 53.34  .93011 .74325  44.6 21.0 7719  63
2026 06 19 16  08 30 26.135   +00 54 55.84  .93025 .74328  44.6 21.0 7798  63
2026 06 19 17  08 30 33.741   +00 53 58.43  .93040 .74331  44.6 21.0 7878  63
2026 06 19 18  08 30 41.337   +00 53 01.10  .93054 .74334  44.6 21.0 7958  63